www.pogodaiklimat.ru

Погода и климат >> Архив погоды >> Россия >> Хабаровский край >> Улья


ПОГОДА в Улье

  • Прогноз погоды в Улье
  • Монитор погоды в Улье

АРХИВ ПОГОДЫ в Улье

Время (UTC), дата Ветер
(напр.,м/с)
 
Видим.   Явления Облачность Т
(С)
Тd
(С)
f
(%)
Тe
(С)
Тes
(С)
Комфортность P
(гПа)
Po
(гПа)
Тmin
(С)
Tmax
(С)
R
(мм)
R24
(мм)
S
(см)
03 20.03 СЗ 1 50 км 4/0
[Ac trans Ci fib]
-10.2 -21.2 40 -12 -6 1017.3 1016.6
06 20.03 Ю 4 50 км 5/0
[Ci fib]
-10.6 -20.3 45 -17 -16 1016.9 1016.2
09 20.03 З 3 50 км 5/0
[Cc]
-12.8 -17.1 70 -19 -19 1017.4 1016.7 -10.1
12 20.03 штиль 0 50 км 5/0
[Cc]
-21.7 -25.7 70 -22 -22 1017.8 1017.1
15 20.03 штиль 0 50 км 5/0
[Cc]
-23.9 -27.9 69 -24 -24 1017.6 1016.9
18 20.03 СВ 3 50 км 5/0
[Cc]
-20.4 -23.7 75 -28 -28 1017.5 1016.8
21 20.03 С 1 50 км 3/0
[Ac trans]
-20.2 -24.3 70 -23 -23 1017.8 1017.1 -24.5 52
00 21.03 СЗ 2 50 км 3/0
[Ac trans]
-11.4 -19.8 50 -16 -13 1017.9 1017.2
03 21.03 СЗ 2 50 км 3/0
[Ci fib]
-8.8 -22.4 32 -13 -7 1016.6 1015.9
06 21.03 Ю 3 50 км 3/0
[Ci fib]
-7.4 -15.7 51 -13 -11 1015.0 1014.4
09 21.03 штиль 0 50 км 3/0
[Ci fib]
-8.0 -21.5 33 -8 -8 1015.0 1014.3 -7.1
12 21.03 СЗ 1 50 км 3/0
[Ci fib]
-13.0 -22.5 45 -15 -15 1014.5 1013.8
15 21.03 СЗ 2 50 км 3/0
[Ci fib]
-13.4 -22.8 45 -18 -18 1013.7 1013.0
18 21.03 С 1 50 км 3/0
[Ci fib]
-15.0 -24.3 45 -18 -18 1013.7 1013.0
21 21.03 СЗ 3 50 км 4/0
[Ci fib]
-17.0 -25.0 50 -24 -24 1013.5 1012.8 -17.5 50
03 22.03 С 2 50 км 4/0
[Ac trans Ci fib]
-7.8 -20.1 37 -12 -6 1012.8 1012.1
06 22.03 СВ 2 50 км 8/0
[Ac As Ci fib]
-8.2 -18.5 43 -12 -10 1012.1 1011.4
09 22.03 СВ 2 50 км 8/0
[Ac As]
-12.2 -19.4 55 -17 -17 1011.9 1011.2 -7.6
12 22.03 штиль 0 50 км 8/0
[Ac As]
-14.4 -18.7 70 -14 -14 1010.8 1010.1
15 22.03 СЗ 1 50 км 8/0
[Ac As]
-15.0 -19.2 70 -18 -18 1009.4 1008.7
18 22.03 С 4 50 км 8/0
[Ac As]
-16.0 -19.4 75 -24 -24 1008.3 1007.6
21 22.03 З 6 50 км 6/0
[Ac As Cc]
-12.2 -15.7 75 -21 -21 1006.7 1006.0 -16.5 48
00 23.03 З 8 50 км 10/0
[Ac trans Ci fib]
-9.4 -15.7 60 -19 -18 1005.1 1004.4
03 23.03 С 6 50 км 8/0
[Ci fib]
-6.4 -15.2 50 -14 -12 1002.8 1002.2
06 23.03 СЗ 3 50 км 6/0
[Ci fib]
-4.6 -15.7 42 -9 -7 1000.7 1000.1
09 23.03 СЗ 1 50 км 6/0
[Ac As Ci fib]
-8.0 -16.0 53 -10 -10 1000.7 1000.0 -4.3
12 23.03 СЗ 2 50 км 8/0
[Ac As Ci fib]
-8.2 -15.7 55 -12 -12 1000.1 999.4
15 23.03 С 4 50 км 8/0
[Ac As Ci fib]
-9.0 -16.3 55 -16 -16 999.6 998.9
18 23.03 СЗ 3 50 км 8/0
[Ac As Ci fib]
-9.2 -15.4 61 -15 -15 999.8 999.1
21 23.03 С 3 50 км 10/0
[As op]
-9.0 -15.7 58 -15 -15 1000.1 999.4 -9.3 46
00 24.03 С 3 50 км 8/0
[Ac As Ci fib]
-7.4 -15.7 51 -13 -11 1000.1 999.5
03 24.03 С 4 50 км 6/0
[Cc]
-3.3 -12.7 48 -9 -5 999.8 999.2
06 24.03 З 1 50 км 6/0
[Cc]
-1.4 -10.9 48 -3 0 1000.0 999.4
09 24.03 штиль 0 50 км 8/0
[Ac trans Cc]
-3.0 -13.9 43 -3 -3 1000.7 1000.1 -0.9
12 24.03 СЗ 1 50 км 8/0
[Ac trans Cc]
-5.4 -14.1 50 -7 -7 1001.5 1000.9
15 24.03 СЗ 1 50 км 8/0
[Ac trans Cc]
-7.8 -15.1 56 -10 -10 1002.0 1001.3
18 24.03 С 3 50 км 8/0
[Ac trans Cc]
-8.5 -15.6 56 -14 -14 1002.3 1001.6
21 24.03 С 2 50 км 6/0
[Ac trans Ci fib]
-9.6 -16.0 60 -14 -14 1002.6 1001.9 -10.0 43
00 25.03 СЗ 4 50 км 8/0
[Cc]
-5.2 -14.9 46 -11 -9 1002.6 1002.0
03 25.03 СЗ 2 50 км 10/0
[Cc]
-2.6 -13.7 42 -6 -0 1002.6 1002.0
06 25.03 СЗ 2 50 км 10/0
[Cc]
-1.2 -13.9 37 -4 -2 1002.2 1001.6
09 25.03 СЗ 1 50 км 8/0
[Ci fib]
-2.6 -15.6 36 -4 -4 1002.3 1001.7 -0.9
12 25.03 З 4 50 км 8/0
[Ci fib]
-4.0 -15.9 39 -9 -9 1002.4 1001.8
15 25.03 С 5 50 км 8/0
[Ci fib]
-5.4 -16.6 41 -12 -12 1002.0 1001.4
18 25.03 С 6 50 км 8/0
[Ci fib]
-7.0 -16.9 45 -15 -15 1002.3 1001.7
21 25.03 З 7 50 км 6/0
[Ci fib]
-7.6 -16.6 48 -16 -16 1002.6 1001.9 -8.0 40
00 26.03 З 7 50 км 6/0
[Ci fib]
-5.4 -14.7 48 -13 -12 1002.2 1001.6
03 26.03 З 8 50 км 3/0
[Ci fib]
-2.6 -12.0 48 -10 -9 1000.6 1000.0
06 26.03 С 7 50 км 3/0
[Ci fib]
-1.0 -13.5 38 -7 -7 999.0 998.4
09 26.03 С 7 50 км 4/0
[Ci fib]
-2.6 -13.1 44 -10 -10 998.1 997.5 -0.7
12 26.03 З 9-10
{10}
50 км 4/0
[Ci fib]
-5.4 -14.7 48 -14 -14 998.3 997.7
15 26.03 З 9-10
{10}
50 км 4/0
[Ci fib]
-7.4 -15.0 54 -17 -17 998.4 997.8
18 26.03 З 9-10
{10}
50 км 4/0
[Ci fib]
-9.2 -16.7 54 -19 -19 998.5 997.8
21 26.03 З 9-10
{10}
50 км 6/0
[Ac trans Ci fib]
-9.4 -17.0 54 -19 -19 998.7 998.0 -9.8 37

 

Местоположение метеостанции Улья (Хабаровский край, Россия): широта 58.80 долгота 141.80 высота над уровнем моря 5 м.

В архиве по умолчанию представлена погода в Улье за последнюю неделю. Архивные данные за месяц целиком и за предыдущие месяцы, начиная с января 2011 года, Вы можете получить, выбрав интересующий диапазон дат из раскрывающегося списка и нажав кнопку "Ввод!".


*Определитесь, кто Вы:
робот инопланетянин человек

Внимание! Время в таблицах - всемирное. Для получения местного времени необходимо прибавить поправку, которая равна 10 ч.

Смотрите также архив погоды в соседних городах и на ближайших метеорологических станциях:

Погода в Охотске (Хабаровский край, Россия) (101 км)
Погода в Арке (Хабаровский край, Россия) (145 км)
Погода в Уеге (Хабаровский край, Россия) (219 км)
Погода в Югоренке (Якутия, Россия) (262 км)
Погода в Аяне (Хабаровский край, Россия) (342 км)
Погода в Нелькане (Хабаровский край, Россия) (357 км)
Погода в Усть-Юдоме (Якутия, Россия) (386 км)
Погода в Талоне (Магаданская область, Россия) (401 км)
Погода на Острове Спафарьева (Магаданская область, Россия) (414 км)
Погода в Усть-Мае (Якутия, Россия) (451 км)

Пояснения к столбцам:

Ветер - указаны скорость ветра в м/с - средняя за 10 мин, порывы в срок и между сроками (в фигурных скобках) и направление, откуда дует ветер: С - северный, СВ - северо-восточный, В - восточный, ЮВ - юго-восточный, Ю - южный, ЮЗ - юго-западный, З - западный, СЗ - северо-западный.
Видимость - горизонтальная дальность видимости в метрах или километрах. При видимости от 1 до 10 км при отсутствии осадков обычно наблюдается дымка, при ухудшении видимости до 1 км и менее - туман. В сухую погоду видимость может ухудшаться дымом, пылью или мглою.
Явления - указаны атмосферные явления, наблюдавшиеся в срок или в последний час перед сроком; фигурными скобками обозначены явления, наблюдавшиеся между сроками (за 1-3 часа до срока); квадратными скобками обозначены град или гололедные отложения с указанием их диаметра в мм.
Облачность - указаны через наклонную черту общая и нижняя облачность в баллах и высота нижней границы облаков в метрах; квадратными скобками обозначены формы облаков: Ci - перистые, Cs - перисто-слоистые, Cc - перисто-кучевые, Ac - высококучевые, As - высокослоистые, Sc - слоисто-кучевые, Ns - слоисто-дождевые, Cu - кучевые, Cb - кучево-дождевые. Подробнее классификацию облаков см. в Атласе облаков (PDF).
T - Температура воздуха - температура, измеренная на высоте 2 м над землей.
Td - Температура точки росы - температура, при понижении до которой содержащийся в воздухе водяной пар достигнет насыщения.
f - Относительная влажность воздуха - влажноcть воздуха, измеренная на высоте 2 м над землей.
Te - Эффективная температура - температура, которую ощущает одетый по сезону человек в тени. Характеристика душности погоды. При расчете учитывается влияние влажности воздуха и скорости ветра на теплоощущения человека.
Tes - Эффективная температура на солнце - температура, которую ощущает человек, с поправкой на солнечный нагрев. Характеристика знойности погоды. Зависит от высоты солнца над горизонтом, облачности и скорости ветра. Ночью, в пасмурную погоду, а также при ветре 12 м/с и более поправка равна нулю.
P - Атмосферное давление - приведенное к уровню моря атмосферное давление.
Po - Атмосферное давление - измеренное на уровне метеостанции атмосферное давление.
Tmin - Минимальная температура - минимум температуры воздуха на высоте 2 м над землей.
Tmax - Максимальная температура - максимум температуры воздуха на высоте 2 м над землей.
R - Количество осадков - Количество выпавших осадков за период времени, мм. При наведении курсора мыши на число - период времени, за который выпало указанное количество осадков.
R24 - Количество осадков - Количество выпавших осадков за 24 часа, мм.
S - Снежный покров - Высота снежного покрова, см. При наведении курсора мыши на число - состояние снежного покрова и степень покрытия местности в баллах.